Weather in Retalhuleu

Guatemala     14°32′09″N   91°40′42″W
temp.,
°C
wind,
m/s
gust,
m/s
humid.,
%
clouds,
%
prec.,
mm/h
press.,
hPa
HPBL,
m
23 may, mon
mon2300:00+23ne129353 11.4 101438
03:00+23ene239443 1.4 101284
06:00+23e129481 4.5 101260
09:00+27ese117411 0.8 1013639
12:00+30sse226333 2.1 10111135
15:00+29ssw226957 7.2 1009969
18:00+26sse118196 12.6 101034
21:00+24ene238950 1.2 101161
24 may, tue
tue2400:00+23ene249310 1.9 1011111
03:00+23ene24918 0.4 1009110
06:00+23ne118850 0.4 101037
09:00+28se236231 0.0 1011759
12:00+31sse335230 0.1 10091651
15:00+28s337095 1.9 1008502
18:00+25ese238391 5.4 1009109
21:00+24e27905 1.8 1011192
25 may, wed
wed2500:00+23e2590100 1.8 1011145
03:00+23ene248976 0.1 1010100
06:00+23ene128632 0.1 101061
09:00+28ese36645 0.0 1011699
12:00+32se575265 0.0 10101788
15:00+29se4766100 0.8 10081028
18:00+26e3882100 2.6 1009407
21:00+24ene2589100 1.0 1012130
26 may, thu
thu2600:00+23e3690100 1.3 1012217
03:00+23ene2488100 0.0 1010113
06:00+24ene228691 0.0 101168
09:00+26e2378100 0.1 1013387
12:00+26se3578100 2.7 1012619
15:00+28sse447549 1.3 1010862
18:00+25ese238689 4.2 1011233
21:00+24ene249175 1.5 1012134
27 may, fri
fri2700:00+23ene1290100 1.6 101144
03:00+23ne1189100 0.1 101045
06:00+23ene1287100 0.1 101161
09:00+28ese3566100 0.0 1012691
12:00+32se455453 0.1 10111699
15:00+29sse456999 2.9 10091149
18:00+24ene2587100 7.6 1010166
21:00+23e268695 0.4 1011164